This demonstration page uses our WeatherBlox Daily Observations layout. Learn more.

Left ArrowRight Arrow

Hourly Observations for April 22, 2021

Temp ( °F °C ) Dew Point ( °F °C ) Humidity (%) Winds ( mph kmh ) Pressure ( in mb ) Visibility ( mi km ) Precip ( " mm )
12:15 am 00:15 Clear 33 0.3 21 -6.3 62 62 SSE 5 7 30.24 1024 10 16.0934 0 0
12:35 am 00:35 Clear 33 0.5 21 -6.1 62 62 S 5 7 30.23 1024 10 16.0934 0 0
12:55 am 00:55 Clear 33 0.3 21 -6 63 63 S 5 7 30.23 1024 10 16.0934 0 0
1:15 am 01:15 Clear 32 0 22 -5.8 65 65 S 6 9 30.24 1024 10 16.0934 0 0
1:35 am 01:35 Clear 32 0.1 22 -5.5 66 66 S 6 9 30.22 1024 10 16.0934 0 0
1:55 am 01:55 Clear 33 0.5 23 -5.2 66 66 S 6 9 30.22 1023 10 16.0934 0 0
2:10 am 02:10 Clear 34 1.1 23 -5.2 63 63 S 7 11 30.21 1023 10 16.0934 0 0
2:35 am 02:35 Mostly Cloudy 34 1.2 24 -4.6 66 66 SSW 9 15 30.2 1023 10 16.0934 0 0
2:55 am 02:55 Cloudy 35 1.8 25 -4 66 66 S 7 11 30.19 1022 10 16.0934 0 0
3:15 am 03:15 Cloudy 36 2.2 25 -3.8 65 65 S 7 11 30.17 1022 10 16.0934 0 0
3:35 am 03:35 Cloudy 36 2 26 -3.2 69 69 S 6 9 30.18 1022 10 16.0934 0 0
3:55 am 03:55 Cloudy 35 1.8 27 -2.9 71 71 SSE 3 6 30.17 1022 10 16.0934 0 0
4:15 am 04:15 Cloudy 36 2 28 -2.5 72 72 S 7 11 30.17 1022 10 16.0934 0 0
4:35 am 04:35 Cloudy 36 2.1 28 -2.4 72 72 S 7 11 30.17 1022 10 16.0934 0 0
4:55 am 04:55 Cloudy 37 2.5 28 -2.2 71 71 S 9 15 30.16 1021 10 16.0934 0 0
5:15 am 05:15 Cloudy 37 2.5 28 -2.2 71 71 S 8 13 30.15 1021 10 16.0934 0 0
5:35 am 05:35 Cloudy 37 2.6 28 -2.4 70 70 S 8 13 30.15 1021 10 16.0934 0 0
5:55 am 05:55 Cloudy 37 2.7 28 -2.3 70 70 S 9 15 30.15 1021 10 16.0934 0 0
6:15 am 06:15 Cloudy 37 2.5 29 -1.8 74 74 S 7 11 30.14 1021 10 16.0934 0 0
6:35 am 06:35 Cloudy 37 2.6 28 -2 72 72 S 6 9 30.15 1021 10 16.0934 0 0
6:55 am 06:55 Cloudy 37 2.6 28 -2.1 71 71 SSE 6 9 30.15 1021 10 16.0934 0 0
7:15 am 07:15 Cloudy 37 2.6 28 -2 72 72 S 6 9 30.15 1021 10 16.0934 0 0
7:35 am 07:35 Cloudy 37 3 29 -1.7 72 72 S 8 13 30.15 1021 10 16.0934 0 0
7:55 am 07:55 Cloudy 38 3.2 29 -1.7 71 71 S 8 13 30.14 1021 10 16.0934 0 0
8:15 am 08:15 Cloudy 39 3.7 29 -1.9 67 67 S 10 17 30.14 1021 10 16.0934 0 0
8:35 am 08:35 Cloudy 39 4.1 29 -1.7 66 66 S 10 17 30.14 1021 10 16.0934 0 0
8:55 am 08:55 Cloudy 40 4.5 29 -1.7 64 64 S 13 20 30.12 1020 10 16.0934 0 0
9:15 am 09:15 Cloudy 41 5.1 29 -1.5 63 63 S 13 20 30.12 1020 10 16.0934 0 0
9:35 am 09:35 Partly Cloudy 44 6.7 29 -1.4 57 57 S 15 24 30.1 1019 10 16.0934 0 0
9:55 am 09:55 Mostly Cloudy 44 6.6 30 -1.3 57 57 S 15 24 30.09 1019 10 16.0934 0 0
10:15 am 10:15 Cloudy 45 7 29 -1.8 54 54 S 17 28 30.08 1019 10 16.0934 0 0
10:35 am 10:35 Cloudy 46 7.6 29 -1.7 52 52 S 21 33 30.06 1018 10 16.0934 0 0
10:55 am 10:55 Mostly Cloudy 49 9.2 31 -0.4 51 51 S 22 35 30.04 1017 10 16.0934 0 0
11:15 am 11:15 Cloudy 47 8.5 32 -0.1 55 55 SSE 20 31 30.04 1017 10 16.0934 0 0
11:35 am 11:35 Cloudy 47 8.1 32 -0.1 57 57 S 24 39 30.04 1017 10 16.0934 0 0
11:55 am 11:55 Cloudy 46 7.6 31 -0.3 58 58 S 22 35 30.02 1017 10 16.0934 0 0
12:15 pm 12:15 Cloudy 47 8.3 31 -0.4 55 55 S 24 39 30.02 1017 10 16.0934 0 0
12:35 pm 12:35 Cloudy 46 7.8 32 0 58 58 SSE 20 31 30 1016 10 16.0934 0 0
12:55 pm 12:55 Cloudy 48 8.8 31 -0.5 52 52 SSE 18 30 29.98 1015 10 16.0934 0 0
1:15 pm 13:15 Mostly Cloudy 50 10.1 29 -1.5 45 45 SSE 22 35 29.94 1014 10 16.0934 0 0
1:35 pm 13:35 Cloudy 52 11 30 -1.2 43 43 SSE 28 44 29.92 1013 10 16.0934 0 0
1:55 pm 13:55 Mostly Cloudy 54 12.2 31 -0.8 41 41 S 25 41 29.89 1012 10 16.0934 0 0
2:15 pm 14:15 Partly Cloudy 55 12.8 31 -0.7 40 40 S 24 39 29.88 1012 10 16.0934 0 0
2:35 pm 14:35 Mostly Cloudy 54 12.4 31 -0.8 40 40 S 29 46 29.87 1012 10 16.0934 0 0
2:55 pm 14:55 Cloudy 54 12 31 -0.6 42 42 S 25 41 29.87 1011 10 16.0934 0 0
3:15 pm 15:15 Cloudy 54 12 31 -0.3 43 43 S 29 46 29.85 1011 10 16.0934 0 0
3:35 pm 15:35 Cloudy 54 12 31 -0.5 42 42 S 25 41 29.85 1011 10 16.0934 0 0
3:55 pm 15:55 Cloudy 53 11.5 31 -0.4 44 44 SSE 28 44 29.84 1010 10 16.0934 0 0
4:15 pm 16:15 Cloudy 52 11.3 31 -0.5 44 44 S 24 39 29.85 1011 10 16.0934 0 0
4:35 pm 16:35 Cloudy 53 11.6 31 -0.5 43 43 S 25 41 29.84 1010 10 16.0934 0 0
4:55 pm 16:55 Cloudy 52 11.3 31 -0.5 44 44 S 18 30 29.83 1010 10 16.0934 0 0
5:15 pm 17:15 Cloudy 52 11.3 31 -0.6 44 44 SSE 20 31 29.82 1010 10 16.0934 0 0
5:35 pm 17:35 Mostly Cloudy 54 12 32 0 44 44 SSE 24 39 29.81 1009 10 16.0934 0 0
5:55 pm 17:55 Mostly Cloudy 55 12.7 31 -0.3 41 41 SSE 26 43 29.79 1009 10 16.0934 0 0
6:15 pm 18:15 Partly Cloudy 55 12.5 31 -0.3 42 42 SSE 21 33 29.79 1009 10 16.0934 0 0
6:35 pm 18:35 Sunny 54 12.2 31 -0.3 42 42 SSE 21 33 29.79 1009 10 16.0934 0 0
6:55 pm 18:55 Sunny 54 12 31 -0.3 43 43 SSE 20 31 29.79 1009 10 16.0934 0 0
7:15 pm 19:15 Sunny 53 11.7 32 -0.1 44 44 SSE 22 35 29.78 1008 10 16.0934 0 0
7:35 pm 19:35 Sunny 52 11 32 -0.2 46 46 SSE 21 33 29.78 1009 10 16.0934 0 0
7:55 pm 19:55 Sunny 51 10.5 32 -0.1 48 48 SSE 18 30 29.79 1009 10 16.0934 0 0
8:15 pm 20:15 Sunny 49 9.7 32 0 51 51 SSE 14 22 29.8 1009 10 16.0934 0 0
8:35 pm 20:35 Clear 49 9.3 32 0 53 53 SSE 18 30 29.8 1009 10 16.0934 0 0
8:55 pm 20:55 Clear 47 8.6 32 0 55 55 SSE 16 26 29.82 1010 10 16.0934 0 0
9:15 pm 21:15 Clear 47 8.1 32 0 57 57 SSE 13 20 29.83 1010 10 16.0934 0 0
9:35 pm 21:35 Clear 46 7.9 32 0 58 58 SSE 17 28 29.83 1010 10 16.0934 0 0
9:55 pm 21:55 Clear 46 7.6 32 0.2 60 60 SSE 16 26 29.83 1010 10 16.0934 0 0
10:15 pm 22:15 Clear 46 7.5 33 0.4 61 61 S 20 31 29.85 1011 10 16.0934 0 0
10:35 pm 22:35 Clear 46 7.5 33 0.7 62 62 S 21 33 29.85 1011 10 16.0934 0 0
10:55 pm 22:55 Clear 45 7 33 0.8 65 65 S 17 28 29.86 1011 10 16.0934 0 0
11:15 pm 23:15 Clear 44 6.8 34 1.2 68 68 S 18 30 29.85 1011 10 16.0934 0 0
11:35 pm 23:35 Partly Cloudy 44 6.5 34 1.3 70 70 S 15 24 29.86 1011 10 16.0934 0 0
11:55 pm 23:55 Mostly Cloudy 44 6.5 35 1.5 71 71 S 17 28 29.86 1011 10 16.0934 0 0

Powered by AerisWeather